CW1490 Weather Reports


Display with metric or nautical units.
time (UTC)temp
F
wind
direction
speed
MPH
gust
MPH
rain 1hr
in
rain 24hr
in
rain mn
in
humidity
%
barometer
mb
20140723051436 68 242 2.0 3.0 0.00 0.00 0.00 94 1013.3
20140723045934 68 242 2.0 3.0 0.00 0.00 0.00 94 1013.6
20140723044432 68 242 0.0 2.0 0.00 0.00 0.00 94 1013.7
20140723042931 68 242 0.0 2.0 0.00 0.00 0.00 94 1013.7
20140723041429 68 242 0.0 2.0 0.00 0.00 0.00 94 1013.7
20140723040229 69 242 1.0 3.0 0.00 0.00 0.00 93 1013.6
20140723034426 69 242 1.0 2.0 0.00 0.00 0.00 93 1013.9
20140723032925 69 242 0.0 0.0 0.00 0.00 0.00 92 1014.0
20140723031428 70 242 0.0 0.0 0.00 0.00 0.00 91 1014.2
20140723025921 70 242 0.0 1.0 0.00 0.00 0.00 91 1014.3
20140723024419 71 242 1.0 3.0 0.00 0.00 0.00 91 1014.4
20140723022919 71 242 0.0 1.0 0.00 0.00 0.00 90 1014.6
20140723021418 72 242 0.0 2.0 0.00 0.00 0.00 89 1014.6
20140723015918 73 242 1.0 2.0 0.00 0.00 0.00 88 1014.7
20140723014417 73 242 0.0 1.0 0.00 0.00 0.00 88 1014.7
20140723012916 74 242 0.0 0.0 0.00 0.00 0.00 87 1014.8
20140723011416 75 242 0.0 0.0 0.00 0.00 0.00 87 1014.7
20140723005916 75 242 0.0 2.0 0.00 0.00 0.00 86 1014.6
20140723004415 76 242 1.0 2.0 0.00 0.00 0.00 85 1014.5
20140723002915 77 242 1.0 2.0 0.00 0.00 0.00 83 1014.5
20140723001414 78 242 1.0 3.0 0.00 0.00 0.00 81 1014.5
20140722235914 79 242 1.0 2.0 0.00 0.00 0.00 82 1014.4
20140722234413 81 242 1.0 3.0 0.00 0.00 0.00 79 1014.4
20140722231412 83 242 2.0 4.0 0.00 0.00 0.00 72 1014.5
20140722225912 84 234 1.0 3.0 0.00 0.00 0.00 73 1014.6
20140722224411 85 213 1.0 3.0 0.00 0.00 0.00 71 1014.6
20140722222910 85 197 1.0 4.0 0.00 0.00 0.00 67 1014.5
20140722221409 86 182 1.0 5.0 0.00 0.00 0.00 66 1014.5
20140722215908 86 200 2.0 7.0 0.00 0.00 0.00 63 1014.6
20140722214408 86 209 3.0 5.0 0.00 0.00 0.00 63 1014.6
20140722212906 86 201 2.0 8.0 0.00 0.00 0.00 63 1014.7
20140722211405 86 234 5.0 9.0 0.00 0.00 0.00 62 1014.9
20140722205904 86 228 3.0 9.0 0.00 0.00 0.00 65 1015.2
20140722204601 86 200 2.0 6.0 0.00 0.00 0.00 67 1015.3
20140722202900 87 226 4.0 9.0 0.00 0.00 0.00 63 1015.3
20140722201358 87 217 2.0 8.0 0.00 0.00 0.00 63 1015.5
20140722195859 87 224 4.0 11.0 0.00 0.00 0.00 61 1015.6
20140722194355 87 248 3.0 8.0 0.00 0.00 0.00 61 1015.7
20140722192855 87 204 4.0 8.0 0.00 0.00 0.00 60 1015.7
20140722191354 88 168 3.0 6.0 0.00 0.00 0.00 61 1015.8
20140722185853 88 227 3.0 10.0 0.00 0.00 0.00 59 1016.1
20140722184347 87 194 5.0 9.0 0.00 0.00 0.00 58 1016.1
20140722182845 87 224 3.0 6.0 0.00 0.00 0.00 58 1016.1
20140722175842 88 237 4.0 9.0 0.00 0.00 0.00 64 1016.5
20140722174340 87 224 4.0 10.0 0.00 0.00 0.00 58 1016.5
20140722172837 86 242 3.0 9.0 0.00 0.00 0.00 59 1016.9
20140722171336 87 184 6.0 9.0 0.00 0.00 0.00 58 1017.1
20140722165834 87 186 4.0 10.0 0.00 0.00 0.00 62 1017.4
20140722164329 86 205 2.0 7.0 0.00 0.00 0.00 66 1017.5
20140722162826 85 165 2.0 6.0 0.00 0.00 0.00 65 1017.7
20140722161325 85 203 2.0 7.0 0.00 0.00 0.00 66 1018.1
20140722155819 84 146 2.0 5.0 0.00 0.00 0.00 65 1018.3
20140722154315 83 177 0.0 5.0 0.00 0.00 0.00 72 1018.4
20140722152813 83 225 2.0 5.0 0.00 0.00 0.00 66 1018.7
20140722151312 83 230 3.0 5.0 0.00 0.00 0.00 69 1018.7
20140722145809 82 234 2.0 4.0 0.00 0.00 0.00 70 1018.8
20140722144303 80 207 0.0 4.0 0.00 0.00 0.00 73 1019.1
20140722142759 78 240 0.0 3.0 0.00 0.00 0.00 74 1019.0
20140722141256 77 182 1.0 6.0 0.00 0.00 0.00 74 1019.2
20140722135754 76 245 2.0 4.0 0.00 0.00 0.00 77 1019.1
20140722134250 75 188 0.0 5.0 0.00 0.00 0.00 79 1019.2
20140722132945 74 226 2.0 7.0 0.00 0.00 0.00 81 1019.5
20140722131241 72 210 2.0 4.0 0.00 0.00 0.00 84 1019.6
20140722125737 71 161 2.0 6.0 0.00 0.00 0.00 86 1019.5
20140722124232 69 213 2.0 5.0 0.00 0.00 0.00 91 1019.8
20140722122727 67 224 1.0 4.0 0.00 0.00 0.00 96 1019.9
20140722121224 66 238 1.0 3.0 0.00 0.00 0.00 97 1020.0
20140722115722 64 240 1.0 2.0 0.00 0.00 0.00 97 1020.3
20140722114217 63 240 0.0 2.0 0.00 0.00 0.00 97 1020.3
20140722112715 63 242 0.0 2.0 0.00 0.00 0.00 97 1020.3
20140722111213 62 242 1.0 2.0 0.00 0.00 0.00 96 1020.4
20140722105711 62 242 0.0 1.0 0.00 0.00 0.00 96 1020.1
20140722104207 62 242 0.0 1.0 0.00 0.00 0.00 96 1020.1
20140722102707 61 242 0.0 1.0 0.00 0.00 0.00 96 1020.0
20140722101205 61 242 0.0 1.0 0.00 0.00 0.00 96 1020.1
20140722095703 61 242 0.0 0.0 0.00 0.00 0.00 96 1020.0
20140722094201 61 242 0.0 1.0 0.00 0.00 0.00 96 1019.9
20140722092700 61 242 0.0 1.0 0.00 0.00 0.00 96 1020.0
20140722091159 61 242 0.0 0.0 0.00 0.00 0.00 96 1019.9
20140722085659 61 242 0.0 1.0 0.00 0.00 0.00 95 1019.8
20140722084159 61 242 0.0 1.0 0.00 0.00 0.00 95 1019.7
20140722082657 61 242 0.0 0.0 0.00 0.00 0.00 95 1019.5
20140722081155 61 242 0.0 1.0 0.00 0.00 0.00 95 1019.5
20140722075655 62 242 0.0 2.0 0.00 0.00 0.00 95 1019.5
20140722074153 62 242 0.0 2.0 0.00 0.00 0.00 95 1019.4
20140722072651 62 242 0.0 1.0 0.00 0.00 0.00 95 1019.5
20140722071150 63 242 0.0 0.0 0.00 0.00 0.00 95 1019.5
20140722065648 63 242 0.0 1.0 0.00 0.00 0.00 95 1019.5
20140722064147 63 242 0.0 0.0 0.00 0.00 0.00 95 1019.6
20140722062648 63 242 1.0 3.0 0.00 0.00 0.00 95 1019.6
20140722061246 63 242 2.0 3.0 0.00 0.00 0.00 95 1019.6
20140722055644 63 242 0.0 1.0 0.00 0.00 0.00 95 1019.7
20140722054142 64 242 0.0 1.0 0.00 0.00 0.00 95 1019.8
20140722052642 64 242 0.0 0.0 0.00 0.00 0.00 94 1019.9